This is the latest recevied weather packets stored in our database for station/object SV9TNF-51. If no packets are shown the sender has not sent any weather packets the latest 10 day(s).
| Time | Temp. | Humidity | Pressure | Rain* | Wind** | Luminosity | Snow |
|---|---|---|---|---|---|---|---|
| 1788579152 | 25° C | 60% | 1012.2 hPa | 0 mm | 0 m/s | - | - |
| 1788578852 | 25.56° C | 60% | 1012.2 hPa | 0 mm | 0 m/s | - | - |
| 1788578552 | 25.56° C | 60% | 1011.9 hPa | 0 mm | 3.13 m/s, 176° | - | - |
| 1788578251 | 25° C | 61% | 1011.9 hPa | 0 mm | 0.89 m/s, 133° | - | - |
| 1788577951 | 25.56° C | 60% | 1011.9 hPa | 0 mm | 1.79 m/s, 126° | - | - |
| 1788577651 | 25° C | 61% | 1011.9 hPa | 0 mm | 7.15 m/s, 6° | - | - |
| 1788577351 | 25.56° C | 60% | 1011.9 hPa | 0 mm | 1.79 m/s, 139° | - | - |
| 1788577051 | 25.56° C | 60% | 1011.9 hPa | 0 mm | 3.13 m/s, 40° | - | - |
| 1788576751 | 25° C | 61% | 1011.9 hPa | 0 mm | 3.13 m/s, 355° | - | - |
| 1788576451 | 25° C | 61% | 1011.9 hPa | 0 mm | 0 m/s | - | - |
| 1788576151 | 25° C | 62% | 1011.9 hPa | 0 mm | 1.34 m/s, 119° | - | - |
| 1788575851 | 25° C | 61% | 1011.9 hPa | 0 mm | 5.81 m/s, 347° | - | - |
| 1788575551 | 25° C | 61% | 1011.9 hPa | 0 mm | 1.79 m/s, 142° | - | - |
| 1788575251 | 25° C | 60% | 1011.9 hPa | 0 mm | 1.34 m/s, 143° | - | - |
| 1788574951 | 25° C | 60% | 1011.9 hPa | 0 mm | 1.34 m/s, 117° | - | - |
| 1788574650 | 25.56° C | 60% | 1011.9 hPa | 0 mm | 0.45 m/s, 143° | - | - |
| 1788574350 | 25° C | 61% | 1011.9 hPa | 0 mm | 3.13 m/s, 205° | - | - |
| 1788574051 | 25.56° C | 60% | 1011.9 hPa | 0 mm | 1.79 m/s, 163° | - | - |
| 1788573751 | 25.56° C | 60% | 1011.9 hPa | 0 mm | 3.13 m/s, 64° | - | - |
| 1788573450 | 25° C | 61% | 1011.9 hPa | 0 mm | 1.34 m/s, 144° | - | - |
| 1788573150 | 25° C | 60% | 1011.9 hPa | 0 mm | 1.79 m/s, 81° | - | - |
| 1788572850 | 25° C | 60% | 1011.9 hPa | 0 mm | 4.47 m/s, 333° | - | - |
| 1788572550 | 25° C | 59% | 1011.9 hPa | 0 mm | 1.34 m/s, 116° | - | - |
| 1788572250 | 25.56° C | 59% | 1011.9 hPa | 0 mm | 2.24 m/s, 185° | - | - |
| 1788571950 | 25.56° C | 59% | 1011.9 hPa | 0 mm | 2.68 m/s, 152° | - | - |
* Rain latest hour (hover to see other rain measurements)
** Current wind speed in m/s (hover to see current wind gust speed)